DCM224 KBHM-KPTN

Flight info

Callsign DCM224
Flight time N/A
Altitude 22000
Route DAYVS MOVIL KWANE WOBAK AWDAD
Aircraft PC12/L-SDFGRWY/S

Departure

Time 2026-05-06 16:24
Airport Birmingham-Shuttlesworth International Airport (KBHM)

Arrival

Time N/A
Airport Harry P Williams Memorial Airport (KPTN)
Time Latitude Longitude Altitude Speed Heading
2026-05-06 16:22 33.57145 -86.74265 630 ft 0 kts 235°
2026-05-06 16:23 33.57106 -86.74342 636 ft 32 kts 241°
2026-05-06 16:23 33.56879 -86.74733 631 ft 78 kts 236°
2026-05-06 16:24 33.56560 -86.75314 790 ft 84 kts 237°
2026-05-06 16:24 33.56290 -86.75947 1069 ft 87 kts 238°
2026-05-06 16:24 33.56024 -86.76585 1389 ft 79 kts 232°
2026-05-06 16:24 33.55706 -86.77075 1670 ft 71 kts 229°
2026-05-06 16:25 33.55383 -86.77527 1864 ft 74 kts 227°
2026-05-06 16:25 33.55019 -86.78011 2057 ft 87 kts 229°
2026-05-06 16:25 33.54552 -86.78639 2255 ft 115 kts 229°
2026-05-06 16:25 33.53961 -86.79439 2505 ft 138 kts 230°
2026-05-06 16:26 33.53342 -86.80271 3138 ft 133 kts 230°
2026-05-06 16:26 33.52726 -86.81099 3633 ft 133 kts 232°
2026-05-06 16:26 33.52114 -86.81920 4172 ft 132 kts 232°
2026-05-06 16:26 33.51504 -86.82739 4726 ft 132 kts 235°
2026-05-06 16:27 33.50891 -86.83560 5236 ft 132 kts 234°
2026-05-06 16:27 33.50279 -86.84383 5731 ft 133 kts 234°
2026-05-06 16:27 33.49668 -86.85202 6226 ft 133 kts 234°
2026-05-06 16:27 33.49057 -86.86021 6717 ft 132 kts 234°
2026-05-06 16:28 33.48436 -86.86856 7179 ft 133 kts 234°
2026-05-06 16:28 33.47825 -86.87675 7636 ft 134 kts 234°
2026-05-06 16:28 33.47203 -86.88509 8106 ft 134 kts 234°
2026-05-06 16:28 33.46582 -86.89343 8594 ft 134 kts 233°
2026-05-06 16:29 33.45958 -86.90179 9065 ft 135 kts 233°
2026-05-06 16:29 33.45332 -86.91018 9539 ft 136 kts 233°
2026-05-06 16:29 33.44704 -86.91858 10004 ft 135 kts 233°
2026-05-06 16:29 33.44077 -86.92698 10420 ft 136 kts 234°
2026-05-06 16:30 33.43442 -86.93548 10844 ft 138 kts 234°
2026-05-06 16:30 33.43017 -86.94117 11157 ft 138 kts 234°
2026-05-06 16:30 33.42154 -86.95271 11824 ft 141 kts 234°
2026-05-06 16:30 33.41499 -86.96148 12335 ft 141 kts 234°
2026-05-06 16:31 33.40841 -86.97029 12832 ft 143 kts 235°
2026-05-06 16:31 33.40174 -86.97920 13347 ft 145 kts 235°
2026-05-06 16:31 33.39499 -86.98819 13898 ft 146 kts 236°
2026-05-06 16:31 33.38820 -86.99725 14394 ft 146 kts 236°
2026-05-06 16:32 33.38139 -87.00637 14849 ft 148 kts 237°
2026-05-06 16:32 33.37454 -87.01553 15303 ft 148 kts 237°
2026-05-06 16:32 33.36765 -87.02474 15676 ft 149 kts 237°
2026-05-06 16:32 33.36074 -87.03395 16110 ft 149 kts 238°
2026-05-06 16:33 33.35379 -87.04324 16517 ft 151 kts 238°
2026-05-06 16:33 33.34677 -87.05261 16957 ft 152 kts 238°
2026-05-06 16:33 33.33973 -87.06200 17369 ft 152 kts 239°
2026-05-06 16:34 33.32553 -87.08093 18207 ft 153 kts 239°
2026-05-06 16:34 33.31841 -87.09043 18558 ft 154 kts 240°
2026-05-06 16:34 33.31128 -87.09993 18886 ft 154 kts 240°
2026-05-06 16:34 33.30409 -87.10952 19205 ft 155 kts 240°
2026-05-06 16:35 33.29691 -87.11908 19547 ft 155 kts 240°
2026-05-06 16:35 33.28971 -87.12867 19879 ft 155 kts 240°
2026-05-06 16:35 33.28260 -87.13814 20203 ft 156 kts 240°
2026-05-06 16:35 33.27526 -87.14791 20527 ft 156 kts 240°
2026-05-06 16:36 33.26801 -87.15755 20846 ft 156 kts 240°
2026-05-06 16:36 33.26084 -87.16710 21142 ft 157 kts 240°
2026-05-06 16:36 33.25346 -87.17692 21455 ft 157 kts 241°
2026-05-06 16:36 33.24616 -87.18663 21776 ft 157 kts 241°
2026-05-06 16:37 33.23889 -87.19632 21971 ft 164 kts 241°
2026-05-06 16:37 33.23133 -87.20740 21978 ft 174 kts 244°
2026-05-06 16:37 33.22422 -87.21929 21984 ft 183 kts 244°
2026-05-06 16:37 33.21667 -87.23183 21986 ft 189 kts 244°
2026-05-06 16:38 33.20891 -87.24475 21989 ft 194 kts 243°
2026-05-06 16:38 33.20098 -87.25795 21991 ft 197 kts 243°
2026-05-06 16:38 33.19293 -87.27137 21992 ft 200 kts 243°
2026-05-06 16:38 33.18480 -87.28493 21994 ft 201 kts 243°
2026-05-06 16:39 33.17661 -87.29856 21996 ft 203 kts 243°
2026-05-06 16:39 33.16839 -87.31225 21996 ft 203 kts 243°
2026-05-06 16:39 33.16014 -87.32598 21998 ft 204 kts 243°
2026-05-06 16:39 33.15189 -87.33974 22001 ft 204 kts 243°
2026-05-06 16:40 33.14364 -87.35346 22003 ft 203 kts 243°
2026-05-06 16:40 33.13537 -87.36721 22002 ft 204 kts 243°
2026-05-06 16:40 33.12711 -87.38098 21989 ft 205 kts 242°
2026-05-06 16:40 33.11877 -87.39488 21993 ft 206 kts 242°
2026-05-06 16:41 33.11037 -87.40884 22001 ft 208 kts 242°
2026-05-06 16:41 33.10189 -87.42293 22002 ft 210 kts 242°
2026-05-06 16:41 33.09335 -87.43710 21998 ft 211 kts 242°
2026-05-06 16:41 33.08476 -87.45136 22001 ft 212 kts 242°
2026-05-06 16:42 33.07612 -87.46569 22002 ft 213 kts 242°
2026-05-06 16:42 33.06749 -87.48001 21994 ft 213 kts 242°
2026-05-06 16:42 33.05884 -87.49434 22003 ft 213 kts 242°
2026-05-06 16:42 33.05019 -87.50868 21992 ft 213 kts 242°
2026-05-06 16:43 33.04157 -87.52299 21990 ft 213 kts 242°
2026-05-06 16:43 33.03289 -87.53731 21991 ft 214 kts 242°
2026-05-06 16:43 33.02417 -87.55177 22001 ft 215 kts 241°
2026-05-06 16:43 33.01458 -87.56519 21991 ft 215 kts 237°
2026-05-06 16:44 33.00485 -87.57871 21995 ft 215 kts 238°
2026-05-06 16:44 32.99515 -87.59232 21990 ft 215 kts 238°
2026-05-06 16:44 32.98545 -87.60587 21991 ft 215 kts 238°
2026-05-06 16:44 32.97573 -87.61941 21995 ft 215 kts 238°
2026-05-06 16:45 32.96604 -87.63290 21986 ft 215 kts 238°
2026-05-06 16:45 32.95632 -87.64644 21985 ft 214 kts 238°
2026-05-06 16:45 32.94663 -87.65993 21993 ft 214 kts 238°
2026-05-06 16:45 32.93693 -87.67343 21985 ft 215 kts 238°
2026-05-06 16:46 32.92719 -87.68697 21990 ft 215 kts 238°
2026-05-06 16:46 32.91744 -87.70053 22012 ft 216 kts 238°
2026-05-06 16:46 32.90768 -87.71409 22001 ft 216 kts 237°
2026-05-06 16:46 32.89793 -87.72765 22009 ft 215 kts 237°
2026-05-06 16:47 32.88818 -87.74118 22008 ft 215 kts 237°
2026-05-06 16:47 32.87845 -87.75468 22000 ft 215 kts 237°
2026-05-06 16:47 32.86872 -87.76819 21984 ft 215 kts 237°
2026-05-06 16:47 32.85898 -87.78171 21997 ft 216 kts 237°
2026-05-06 16:48 32.84918 -87.79531 21997 ft 217 kts 237°
2026-05-06 16:48 32.83933 -87.80896 22003 ft 218 kts 237°
2026-05-06 16:48 32.82945 -87.82265 21998 ft 218 kts 237°
2026-05-06 16:48 32.81955 -87.83636 21998 ft 219 kts 237°
2026-05-06 16:49 32.80965 -87.85007 22013 ft 219 kts 237°